Weather in Glastonbury

United Kingdom     51°09′10″N   2°43′11″W
temp.,
°C
wind,
m/s
gust,
m/s
humid.,
%
clouds,
%
prec.,
mm/h
press.,
hPa
HPBL,
m
9 may, sun
sun901:00+12s9179396 0.2 997852
04:00+12s91795100 0.4 996924
07:00+12ssw61390100 0.6 996686
10:00+14ssw71177100 0.0 995858
13:00+15ssw81268100 0.0 9951370
16:00+14ssw71471100 0.1 9951301
19:00+12s61177100 0.1 995804
22:00+11s61281100 0.0 995703
10 may, mon
mon1001:00+9s6129665 0.0 994559
04:00+10ssw61286100 0.1 994858
07:00+10ssw71179100 0.1 9961012
10:00+11ssw8137991 0.1 9971266
13:00+13ssw9147685 0.8 9981686
16:00+12ssw913817 1.2 10001560
19:00+11ssw710825 2.1 1002866
22:00+6s49941 0.1 1004174
11 may, tue
tue1101:00+6sse3796100 0.1 1005120
04:00+6se3896100 0.0 1005169
07:00+7se3892100 0.0 1005299
10:00+12sse696950 0.0 10051322
13:00+13sse9126684 0.4 10041766
16:00+12s1014814 1.0 10021330
19:00+10sw711885 2.7 1004909
22:00+8s6129581 0.1 1006528
12 may, wed
wed1201:00+9ssw61191100 0.1 1007690
04:00+7s389781 0.1 1007216
07:00+8s379662 0.3 1008419
10:00+11ssw577969 0.0 1008914
13:00+12ssw697884 0.8 10081344
16:00+12sw587669 1.1 1008739
19:00+11ssw698736 2.5 1008683
22:00+7ssw389638 0.5 1009234
13 may, thu
thu1301:00+6ssw11979 0.5 101017
04:00+5sw119615 0.0 100910
07:00+7sse11955 0.0 100958
10:00+11s227810 0.0 1009656
13:00+14ssw226648 0.6 10091286
16:00+14sw226763 1.5 10091226
19:00+11w3488100 2.8 1009189
22:00+7wsw1189100 0.1 101011